AFR327B GMMX-GMTT

Flight info

Callsign AFR327B
Flight time N/A
Altitude 36000
Route MABAP3D/10 MABAP UR722 SAK UG5 VAGNO
Aircraft A20N/M-SDE2E3FGHIRWXY/LB1

Departure

Time N/A
Airport Marrakesh Menara Airport (GMMX)

Arrival

Time 2026-04-20 18:59
Airport Tangier Ibn Battuta Airport (GMTT)
Time Latitude Longitude Altitude Speed Heading
2026-04-20 18:17 33.05577 -7.98535 35839 ft 461 kts 26°
2026-04-20 18:17 33.08381 -7.96667 35844 ft 461 kts 26°
2026-04-20 18:18 33.13996 -7.92953 35845 ft 461 kts 26°
2026-04-20 18:19 33.25409 -7.85436 35846 ft 460 kts 26°
2026-04-20 18:19 33.31021 -7.81727 35841 ft 461 kts 26°
2026-04-20 18:20 33.36623 -7.78020 35840 ft 461 kts 26°
2026-04-20 18:20 33.42213 -7.74315 35839 ft 460 kts 26°
2026-04-20 18:21 33.47823 -7.70587 35834 ft 460 kts 26°
2026-04-20 18:21 33.53439 -7.66921 35832 ft 459 kts 24°
2026-04-20 18:22 33.59149 -7.63458 35825 ft 459 kts 23°
2026-04-20 18:22 33.64827 -7.60033 35821 ft 459 kts 23°
2026-04-20 18:23 33.70545 -7.56568 35813 ft 459 kts 24°
2026-04-20 18:23 33.76215 -7.53122 35807 ft 460 kts 24°
2026-04-20 18:24 33.81941 -7.49635 35804 ft 460 kts 24°
2026-04-20 18:24 33.87655 -7.46149 35811 ft 460 kts 24°
2026-04-20 18:25 33.93342 -7.42675 35805 ft 460 kts 24°
2026-04-20 18:25 33.99056 -7.39178 35805 ft 460 kts 24°
2026-04-20 18:26 34.04713 -7.35711 35800 ft 459 kts 24°
2026-04-20 18:26 34.10415 -7.32193 35801 ft 459 kts 25°
2026-04-20 18:27 34.16082 -7.28704 35809 ft 458 kts 24°
2026-04-20 18:27 34.21759 -7.25214 35818 ft 459 kts 24°
2026-04-20 18:28 34.27424 -7.21722 35819 ft 459 kts 24°
2026-04-20 18:28 34.33113 -7.18209 35809 ft 453 kts 24°
2026-04-20 18:29 34.35876 -7.16498 35812 ft 437 kts 24°
2026-04-20 18:29 34.38509 -7.14865 35756 ft 424 kts 24°
2026-04-20 18:29 34.41112 -7.13254 35408 ft 417 kts 24°
2026-04-20 18:29 34.43690 -7.11661 35019 ft 412 kts 24°
2026-04-20 18:30 34.46237 -7.10086 34644 ft 407 kts 24°
2026-04-20 18:30 34.48735 -7.08536 34276 ft 401 kts 24°
2026-04-20 18:30 34.51177 -7.07022 33933 ft 396 kts 24°
2026-04-20 18:30 34.53625 -7.05502 33585 ft 391 kts 25°
2026-04-20 18:31 34.56021 -7.04012 33242 ft 386 kts 25°
2026-04-20 18:31 34.58408 -7.02526 32851 ft 382 kts 25°
2026-04-20 18:31 34.60744 -7.01076 32460 ft 379 kts 25°
2026-04-20 18:31 34.63081 -6.99641 32070 ft 376 kts 24°
2026-04-20 18:32 34.65416 -6.98214 31663 ft 373 kts 25°
2026-04-20 18:32 34.67703 -6.96816 31266 ft 370 kts 25°
2026-04-20 18:32 34.69985 -6.95420 30893 ft 366 kts 25°
2026-04-20 18:32 34.72266 -6.94020 30519 ft 363 kts 25°
2026-04-20 18:33 34.74503 -6.92647 30131 ft 360 kts 25°
2026-04-20 18:33 34.76708 -6.91293 29754 ft 357 kts 25°
2026-04-20 18:33 34.78925 -6.89930 29386 ft 354 kts 25°
2026-04-20 18:33 34.81096 -6.88597 29013 ft 351 kts 24°
2026-04-20 18:34 34.83261 -6.87266 28632 ft 348 kts 25°
2026-04-20 18:34 34.85415 -6.85941 28260 ft 346 kts 25°
2026-04-20 18:34 34.87564 -6.84618 27875 ft 344 kts 25°
2026-04-20 18:34 34.89682 -6.83312 27488 ft 342 kts 25°
2026-04-20 18:35 34.91798 -6.82009 27107 ft 340 kts 25°
2026-04-20 18:35 34.93894 -6.80716 26739 ft 338 kts 25°
2026-04-20 18:35 34.95990 -6.79422 26368 ft 336 kts 25°
2026-04-20 18:35 34.98075 -6.78134 25988 ft 334 kts 25°
2026-04-20 18:36 35.00133 -6.76863 25630 ft 332 kts 25°
2026-04-20 18:36 35.02173 -6.75602 25270 ft 330 kts 25°
2026-04-20 18:36 35.04207 -6.74343 24917 ft 327 kts 25°
2026-04-20 18:36 35.06218 -6.73097 24826 ft 325 kts 25°
2026-04-20 18:37 35.08246 -6.71841 24816 ft 327 kts 25°
2026-04-20 18:37 35.10271 -6.70587 24812 ft 327 kts 25°
2026-04-20 18:37 35.12320 -6.69322 24810 ft 327 kts 25°
2026-04-20 18:37 35.14346 -6.68074 24811 ft 326 kts 25°
2026-04-20 18:38 35.16378 -6.66817 24812 ft 326 kts 25°
2026-04-20 18:38 35.18390 -6.65571 24815 ft 326 kts 25°
2026-04-20 18:38 35.20423 -6.64309 24803 ft 324 kts 25°
2026-04-20 18:38 35.22408 -6.63075 24570 ft 321 kts 25°
2026-04-20 18:39 35.24398 -6.61837 24150 ft 321 kts 25°
2026-04-20 18:39 35.26386 -6.60600 23761 ft 320 kts 25°
2026-04-20 18:39 35.28355 -6.59374 23403 ft 318 kts 25°
2026-04-20 18:39 35.30331 -6.58143 23050 ft 316 kts 25°
2026-04-20 18:40 35.32259 -6.56941 22721 ft 313 kts 25°
2026-04-20 18:40 35.34200 -6.55730 22384 ft 311 kts 25°
2026-04-20 18:40 35.36105 -6.54540 22064 ft 308 kts 25°
2026-04-20 18:40 35.38020 -6.53343 21721 ft 305 kts 25°
2026-04-20 18:41 35.39904 -6.52164 21399 ft 303 kts 25°
2026-04-20 18:41 35.41752 -6.51009 21093 ft 301 kts 25°
2026-04-20 18:41 35.43608 -6.49848 20790 ft 298 kts 25°
2026-04-20 18:41 35.45462 -6.48678 20460 ft 296 kts 26°
2026-04-20 18:42 35.47272 -6.47506 20128 ft 294 kts 26°
2026-04-20 18:42 35.49056 -6.46341 19803 ft 292 kts 26°
2026-04-20 18:42 35.50834 -6.45178 19489 ft 290 kts 26°
2026-04-20 18:42 35.52611 -6.44017 19163 ft 288 kts 26°
2026-04-20 18:43 35.54372 -6.42866 18847 ft 286 kts 26°
2026-04-20 18:43 35.56130 -6.41719 18519 ft 284 kts 26°
2026-04-20 18:43 35.57854 -6.40593 18215 ft 282 kts 26°
2026-04-20 18:43 35.59593 -6.39457 17887 ft 281 kts 26°
2026-04-20 18:44 35.61315 -6.38332 17582 ft 279 kts 26°
2026-04-20 18:44 35.63019 -6.37218 17269 ft 277 kts 26°
2026-04-20 18:44 35.64706 -6.36114 16956 ft 275 kts 26°
2026-04-20 18:44 35.66399 -6.35005 16645 ft 274 kts 26°
2026-04-20 18:45 35.68057 -6.33911 16326 ft 272 kts 27°
2026-04-20 18:45 35.69732 -6.32800 16019 ft 270 kts 27°
2026-04-20 18:45 35.71370 -6.31718 15720 ft 269 kts 27°
2026-04-20 18:45 35.72970 -6.30517 15381 ft 268 kts 43°
2026-04-20 18:46 35.73954 -6.28617 14890 ft 271 kts 77°
2026-04-20 18:46 35.74077 -6.26316 14304 ft 271 kts 94°
2026-04-20 18:46 35.73992 -6.24005 13552 ft 277 kts 93°
2026-04-20 18:46 35.73926 -6.21650 12903 ft 276 kts 92°
2026-04-20 18:47 35.73880 -6.19303 12365 ft 270 kts 92°
2026-04-20 18:47 35.73848 -6.17046 11932 ft 261 kts 92°
2026-04-20 18:47 35.73822 -6.14883 11731 ft 242 kts 92°
2026-04-20 18:47 35.73798 -6.12902 11559 ft 223 kts 91°
2026-04-20 18:48 35.73777 -6.11069 11298 ft 209 kts 92°
2026-04-20 18:48 35.73756 -6.09342 11109 ft 193 kts 92°
2026-04-20 18:48 35.73735 -6.07743 10891 ft 181 kts 92°
2026-04-20 18:48 35.73706 -6.06243 10638 ft 170 kts 92°
2026-04-20 18:49 35.73677 -6.04820 10343 ft 164 kts 92°
2026-04-20 18:49 35.73648 -6.03433 9990 ft 163 kts 92°
2026-04-20 18:49 35.73619 -6.02040 9629 ft 163 kts 92°
2026-04-20 18:49 35.73518 -6.00670 9269 ft 161 kts 111°
2026-04-20 18:50 35.72922 -5.99549 8919 ft 157 kts 133°
2026-04-20 18:50 35.72036 -5.98834 8540 ft 153 kts 173°
2026-04-20 18:50 35.71061 -5.99139 8167 ft 147 kts 223°
2026-04-20 18:50 35.70643 -6.00221 7792 ft 145 kts 268°
2026-04-20 18:51 35.70729 -6.01465 7417 ft 147 kts 278°
2026-04-20 18:51 35.70905 -6.02702 7048 ft 148 kts 279°
2026-04-20 18:51 35.71093 -6.03931 6700 ft 148 kts 280°
2026-04-20 18:51 35.71284 -6.05176 6355 ft 148 kts 280°
2026-04-20 18:52 35.71476 -6.06414 6024 ft 147 kts 280°
2026-04-20 18:52 35.71666 -6.07633 5696 ft 146 kts 279°
2026-04-20 18:52 35.71860 -6.08867 5343 ft 147 kts 280°
2026-04-20 18:52 35.72054 -6.10102 5008 ft 150 kts 280°
2026-04-20 18:53 35.72249 -6.11346 4764 ft 147 kts 279°
2026-04-20 18:53 35.72445 -6.12591 4492 ft 147 kts 279°
2026-04-20 18:53 35.72641 -6.13825 4216 ft 147 kts 279°
2026-04-20 18:53 35.72834 -6.15053 4015 ft 146 kts 281°
2026-04-20 18:54 35.73276 -6.16163 3961 ft 147 kts 323°
2026-04-20 18:54 35.74220 -6.16500 3977 ft 145 kts 14°
2026-04-20 18:54 35.75018 -6.15833 3987 ft 143 kts 66°
2026-04-20 18:54 35.75225 -6.14649 4031 ft 145 kts 88°
2026-04-20 18:55 35.75197 -6.13392 4007 ft 146 kts 97°
2026-04-20 18:55 35.75075 -6.12163 3994 ft 146 kts 99°
2026-04-20 18:55 35.74938 -6.10921 3970 ft 145 kts 99°
2026-04-20 18:55 35.74809 -6.09681 3643 ft 151 kts 98°
2026-04-20 18:56 35.74683 -6.08401 3334 ft 149 kts 98°
2026-04-20 18:56 35.74564 -6.07144 2988 ft 148 kts 97°
2026-04-20 18:56 35.74449 -6.05895 2680 ft 145 kts 97°
2026-04-20 18:56 35.74339 -6.04698 2360 ft 142 kts 97°
2026-04-20 18:57 35.74227 -6.03493 1932 ft 142 kts 96°
2026-04-20 18:57 35.74115 -6.02296 1546 ft 139 kts 96°
2026-04-20 18:57 35.74007 -6.01131 1146 ft 137 kts 95°
2026-04-20 18:57 35.73900 -5.99989 965 ft 134 kts 95°
2026-04-20 18:58 35.73793 -5.98844 805 ft 133 kts 95°
2026-04-20 18:58 35.73689 -5.97720 644 ft 132 kts 94°
2026-04-20 18:58 35.73587 -5.96638 447 ft 124 kts 94°
2026-04-20 18:58 35.73488 -5.95577 274 ft 124 kts 93°
2026-04-20 18:59 35.73391 -5.94555 154 ft 116 kts 93°
2026-04-20 18:59 35.73312 -5.93597 30 ft 95 kts 98°
2026-04-20 18:59 35.73255 -5.93091 34 ft 44 kts 98°
2026-04-20 18:59 35.73221 -5.92729 37 ft 40 kts 95°
2026-04-20 19:00 35.73190 -5.92398 36 ft 38 kts 96°
2026-04-20 19:00 35.73159 -5.92060 38 ft 38 kts 95°
2026-04-20 19:00 35.73095 -5.91780 43 ft 32 kts 144°
2026-04-20 19:00 35.72991 -5.91729 43 ft 0 kts 176°